This demonstration page uses our WeatherBlox Daily Observations layout. Learn more.

Left ArrowRight Arrow

34.74481, -87.66753

Hourly Observations for May 16, 2019

Temp ( °F °C ) Dew Point ( °F °C ) Humidity (%) Winds ( mph kmh ) Pressure ( in mb ) Visibility ( mi km ) Precip ( " mm )
12:53 am 00:53 Mostly Cloudy 65 18.3 62 16.7 90 90 ESE 3 6 29.98 1015 10 16 0.00 0.00
1:53 am 01:53 Mostly Cloudy 64 17.8 62 16.7 93 93 ENE 3 6 29.97 1015 10 16 0.00 0.00
2:53 am 02:53 Clear 63 17.2 61 16.1 93 93 ENE 3 6 29.96 1015 10 16 0.00 0.00
3:53 am 03:53 Clear with Mist and Fog 61 16.1 60 15.6 97 97 Calm 29.97 1015 6 10 0.00 0.00
4:53 am 04:53 Partly Cloudy 62 16.7 60 15.6 93 93 Calm 29.98 1015 8 13 0.00 0.00
5:53 am 05:53 Mostly Sunny 62 16.7 60 15.6 93 93 Calm 29.98 1015 9 14 0.00 0.00
6:53 am 06:53 Sunny 64 17.8 62 16.7 93 93 Calm 30.01 1016 10 16 0.00 0.00
7:53 am 07:53 Sunny 70 21.1 64 17.8 82 82 Calm 30.02 1017 10 16 0.00 0.00
8:53 am 08:53 Sunny 75 23.9 65 18.3 71 71 W 5 7 30.02 1017 10 16 0.00 0.00
9:53 am 09:53 Sunny 79 26.1 65 18.3 62 62 VRB 3 6 30.01 1016 10 16 0.00 0.00
10:53 am 10:53 Sunny 82 27.8 66 18.9 58 58 Calm 30.01 1016 10 16 0.00 0.00
11:53 am 11:53 Sunny 84 28.9 65 18.3 53 53 VRB 3 6 29.99 1016 10 16 0.00 0.00
12:53 pm 12:53 Partly Cloudy 87 30.6 66 18.9 50 50 WSW 7 11 29.97 1015 10 16 0.00 0.00
1:53 pm 13:53 Mostly Cloudy 87 30.6 67 19.4 51 51 W 7 11 29.96 1015 10 16 0.00 0.00
2:53 pm 14:53 Partly Cloudy 86 30 65 18.3 49 49 NW 8 13 29.96 1015 10 16 0.00 0.00
3:53 pm 15:53 Sunny 89 31.7 65 18.3 45 45 WNW 10 17 29.94 1014 10 16 0.00 0.00
4:53 pm 16:53 Partly Cloudy 87 30.6 65 18.3 48 48 WNW 10 17 29.92 1013 10 16 0.00 0.00
5:53 pm 17:53 Mostly Sunny 86 30 66 18.9 51 51 WSW 9 15 29.91 1013 10 16 0.00 0.00
6:53 pm 18:53 Sunny 83 28.3 66 18.9 57 57 W 7 11 29.92 1013 10 16 0.00 0.00
7:53 pm 19:53 Clear 78 25.6 67 19.4 69 69 WSW 5 7 29.92 1013 10 16 0.00 0.00
8:53 pm 20:53 Clear 74 23.3 67 19.4 79 79 Calm 29.94 1014 10 16 0.00 0.00
10:53 pm 22:53 Clear 71 21.7 66 18.9 84 84 WSW 3 6 29.95 1014 10 16 0.00 0.00
11:53 pm 23:53 Clear 69 20.6 66 18.9 90 90 Calm 29.95 1014 10 16 0.00 0.00

Powered by AerisWeather